October update: temperature, remote control


#1

Installed the October update. After that, temperature problems with Nebula skin (95°C). OSMC skin at around 80°C while idling.

Main problem: browsing through movies or series. Hitting the “right” button once will go one video forward. Pressing it the second time will forward endlessly with increasing speed. No chance to select a video.

While playing a video, no fast forward is possible. The screen goes black to the point where my TV errors out with “unsupported video format”. “Stop” key does not work then, “back” also not. Only possibility: restart Vero.

Vero 4k, connected via wifi, Logitech Harmony Elite remote control which used to work before.


#2

95C is within range.

We’d need some logs to know what’s happening with seeking. Does it happen with all files?

Sam


#3

Ah, ok then.
Until now it seems it happens with all files. In my case, this is mainly avi.
Any special logs you need?
Jan


#4

Please upload full logs via My OSMC with debugging enabled when there is a problem.


#5

I hope I did that right: https://paste.osmc.tv/harasotupu
That is: hitting “OK” on a video, selecting “from start”, hitting “forward” 4 times (skipped like 1 second), hitting “forward” again 4 times (threw me back to the movie gallery and forwarded one movie).


#6

Pulled a new log with a reboot before. Same issue, skipping forward repeats all over (“previous line repeats x times”, altogether 298 times) until I press “back” which then throws me back to the gallery, because it reverts at the same speed. Extract:

08:44:17.034 T:4078957136   DEBUG: Activating window ID: 12005
08:44:17.035 T:4048651008   DEBUG: ActiveAE - start sync of audio stream
08:44:17.035 T:3560960768   DEBUG: CVideoPlayerVideo - CDVDMsg::GENERAL_RESYNC(-191838.580984)
08:44:17.037 T:4078957136   DEBUG: ------ Window Deinit (MyVideoNav.xml) ------
08:44:17.038 T:4078957136   DEBUG: ------ Window Init (VideoFullScreen.xml) ------
08:44:17.038 T:4078957136    INFO: Loading skin file: VideoFullScreen.xml, load type: KEEP_IN_MEMORY
08:44:17.055 T:4078957136   DEBUG: ------ Window Deinit (Custom_Cache_Progress.xml) ------
08:44:17.135 T:4048651008   DEBUG: ActiveAE::SyncStream - average error of 33.797789, start adjusting
08:44:17.135 T:4048651008   DEBUG: ActiveAE::SyncStream - average error 0.797789 below threshold of 30.000000
08:44:17.185 T:4078957136   DEBUG: CAMLCodec::SetVideo3dMode:mode3d(0x0)
08:44:17.185 T:4078957136   DEBUG: CAMLCodec::SetVideoRect:display(0,0,1920,1080)
08:44:17.185 T:4078957136   DEBUG: CAMLCodec::SetVideoRect:gui(0,0,1920,1080)
08:44:17.185 T:4078957136   DEBUG: CAMLCodec::SetVideoRect:m_dst_rect(58,33,1801,1013)
08:44:17.185 T:4078957136   DEBUG: CAMLCodec::SetVideoRect:dst_rect(58,33,1801,1013)
08:44:17.185 T:4078957136   DEBUG: CAMLCodec::SetVideoRect:m_stereo_mode(0)
08:44:17.185 T:4078957136   DEBUG: CAMLCodec::SetVideoRect:m_stereo_view(0)
08:44:17.282 T:4028625664   DEBUG: CEGLNativeTypeAmlogic: Detected HDMI switch
08:44:18.160 T:3534430976   DEBUG: CDVDClock::ErrorAdjust - CVideoPlayerAudio::OutputPacket - error:-28435.631210, adjusted:-28435.631210
08:44:19.588 T:3560960768   DEBUG: CPullupCorrection: detected pattern of length 1: 20000.00, frameduration: 20000.000000
08:44:21.701 T:4078957136   DEBUG: LIRC: Update - NEW at 70119:6a 0 KEY_RIGHT linux-input-layer (KEY_RIGHT)
08:44:21.701 T:4078957136   DEBUG: OnKey: 168 (0xa8, obc87) pressed, action is StepForward
08:44:21.703 T:4078957136   DEBUG: ------ Window Init (DialogSeekBar.xml) ------
08:44:22.455 T:4078953216   DEBUG: CAnnouncementManager - Announcement: OnSeek from xbmc
08:44:22.455 T:4078953216   DEBUG: GOT ANNOUNCEMENT, type: 1, from xbmc, message OnSeek
08:44:22.462 T:3794514688   DEBUG: CVideoPlayer::SetCaching - caching state 1
08:44:22.462 T:3794514688   DEBUG: CDVDClock::SetSpeedAdjust - adjusted:0.000000
08:44:22.462 T:3794514688   DEBUG: demuxer seek to: 15208.000000
08:44:22.462 T:3794514688   DEBUG: SeekTime - unknown position after seek
08:44:22.462 T:3794514688   DEBUG: demuxer seek to: 15208.000000, success
08:44:22.462 T:3794514688   DEBUG: CVideoPlayer::FlushBuffers - flushing buffers
08:44:22.470 T:3534430976   DEBUG: CDVDAudio::Pause - pausing audio stream
08:44:22.529 T:3836982016   DEBUG: Skin Helper Service --> Kodi_Monitor: sender xbmc - method: Player.OnSeek  - data: {"item":{"id":1493,"type":"episode"},"player":{"playerid":1,"seekoffset":{"hours":0,"milliseconds":0,"minutes":0,"seconds":10},"speed":1,"time":{"hours":0,"milliseconds":200,"minutes":0,"seconds":15}}}
08:44:22.585 T:4078957136   DEBUG: OnKey: 168 (0xa8, obc87) pressed, action is StepForward
08:44:22.682 T:3534430976   DEBUG: CDVDAudio::Flush - flush audio stream
08:44:22.683 T:3534430976   DEBUG: CDVDAudio::Pause - pausing audio stream
08:44:22.785 T:4078957136   DEBUG: OnKey: 168 (0xa8, obc87) pressed, action is StepForward
08:44:22.989 T:3560960768   DEBUG: Previous line repeats 1 times.
08:44:22.989 T:3560960768 WARNING: CRenderManager::WaitForBuffer - timeout waiting for buffer
08:44:23.185 T:4078957136   DEBUG: OnKey: 168 (0xa8, obc87) pressed, action is StepForward
08:44:23.465 T:3794514688   DEBUG: Previous line repeats 1 times.
08:44:23.465 T:3794514688   DEBUG: CDVDMsgGeneralSynchronize - global timeout
08:44:23.465 T:3794514688   DEBUG: CVideoPlayer::SetCaching - caching state 2
08:44:23.465 T:3794514688   DEBUG: CDVDClock::SetSpeedAdjust - adjusted:0.000000
08:44:23.467 T:3534430976   DEBUG: CDVDMsgGeneralSynchronize - global timeout
08:44:23.467 T:3534430976   DEBUG: CVideoPlayerAudio - CDVDMsg::GENERAL_SYNCHRONIZE
08:44:23.467 T:3534430976   DEBUG: CDVDAudio::Pause - pausing audio stream
08:44:23.470 T:4078957136   DEBUG: ------ Window Init (Custom_Cache_Progress.xml) ------
08:44:23.472 T:4078957136   DEBUG: started alarm with name: iscachingtimer
08:44:23.474 T:3794514688   DEBUG: CVideoPlayer::HandleMessages - player started 1
08:44:23.586 T:4078957136   DEBUG: OnKey: 168 (0xa8, obc87) pressed, action is StepForward
08:44:24.006 T:3560960768   DEBUG: Previous line repeats 2 times.
08:44:24.006 T:3560960768   DEBUG: CAMLCodec::SetSpeed, speed(0)
08:44:24.006 T:3560960768   DEBUG: CAMLCodec::Reset
08:44:24.085 T:3560960768   DEBUG: CVideoPlayerVideo - CDVDMsg::GENERAL_SYNCHRONIZE
08:44:24.085 T:3560960768    INFO: CVideoPlayerVideo - Stillframe left, switching to normal playback
08:44:24.185 T:4078957136   DEBUG: OnKey: 168 (0xa8, obc87) pressed, action is StepForward
08:44:24.388 T:3794514688   DEBUG: Previous line repeats 1 times.
08:44:24.388 T:3794514688   DEBUG: CVideoPlayer::HandleMessages - player started 2
08:44:24.388 T:3794514688   DEBUG: CVideoPlayer::SetCaching - caching state 3
08:44:24.388 T:3794514688   DEBUG: CDVDClock::SetSpeedAdjust - adjusted:0.000000
08:44:24.388 T:3794514688   DEBUG: CVideoPlayer::SetCaching - caching state 0
08:44:24.388 T:3794514688   DEBUG: CDVDClock::SetSpeedAdjust - adjusted:0.000000
08:44:24.388 T:3794514688   DEBUG: VideoPlayer::Sync - Audio - pts: 16367999.000000, cache: 287999.987602, totalcache: 570666.670799
08:44:24.388 T:3794514688   DEBUG: VideoPlayer::Sync - Video - pts: 16100000.000000, cache: 50000.000000, totalcache: 100000.000000
08:44:24.389 T:3560960768   DEBUG: CAMLCodec::SetSpeed, speed(1000)
08:44:24.389 T:3560960768   DEBUG: CVideoPlayerVideo - CDVDMsg::GENERAL_RESYNC(16000000.000000)
08:44:24.389 T:3534430976   DEBUG: CVideoPlayerAudio - CDVDMsg::GENERAL_RESYNC(16000000.000000)
08:44:24.389 T:3534430976   DEBUG: CDVDAudio::Resume - resume audio stream
08:44:24.391 T:4048651008   DEBUG: ActiveAE - start sync of audio stream
08:44:24.391 T:4039111424    INFO: CActiveAESink::OpenSink - initialize sink
08:44:24.392 T:4039111424   DEBUG: CActiveAESink::OpenSink - trying to open device ALSA:default
08:44:24.392 T:4039111424    INFO: CAESinkALSA::Initialize - Requested layout: FL,FR
08:44:24.392 T:4039111424    INFO: CAESinkALSA::Initialize - set digital_codec 0
08:44:24.392 T:4039111424   DEBUG: CAESinkALSA::Initialize -- unmuting HDMI
08:44:24.392 T:4039111424    INFO: CAESinkALSA::Initialize - Attempting to open device "default"
                                             with
08:44:24.397 T:4039111424    INFO: CAESinkALSA::Initialize - Opened device "default"
08:44:24.400 T:4039111424    INFO: CAESinkALSA::InitializeHW - Your hardware does not support AE_FMT_FLOAT, trying other formats
08:44:24.401 T:4039111424    INFO: CAESinkALSA::InitializeHW - Using data format AE_FMT_S32NE
08:44:24.401 T:4039111424   DEBUG: CAESinkALSA::InitializeHW - Request: periodSize 2048, bufferSize 8192
08:44:24.403 T:4039111424   DEBUG: CAESinkALSA::InitializeHW - Got: periodSize 2048, bufferSize 8192
08:44:24.403 T:4039111424   DEBUG: CAESinkALSA::InitializeHW - Setting timeout to 171 ms
08:44:24.404 T:4039111424    INFO: CAESinkALSA::Initialize - setting default aud_ch to 0
08:44:24.404 T:4078957136   DEBUG: ------ Window Deinit (Custom_Cache_Progress.xml) ------
08:44:24.404 T:4039111424   DEBUG: CAESinkALSA::GetChannelLayout - Input Channel Count: 2 Output Channel Count: 2
08:44:24.404 T:4039111424   DEBUG: CAESinkALSA::GetChannelLayout - Requested Layout: FL,FR
08:44:24.404 T:4039111424   DEBUG: CAESinkALSA::GetChannelLayout - Got Layout: FL,FR (ALSA: none) (CEA: 0)
08:44:24.404 T:4039111424   DEBUG: CActiveAESink::OpenSink - ALSA Initialized:
08:44:24.404 T:4039111424   DEBUG:   Output Device : Default (AML-M8AUDIO Analog)
08:44:24.404 T:4039111424   DEBUG:   Sample Rate   : 48000
08:44:24.404 T:4039111424   DEBUG:   Sample Format : AE_FMT_S32NE
08:44:24.404 T:4039111424   DEBUG:   Channel Count : 2
08:44:24.404 T:4039111424   DEBUG:   Channel Layout: FL,FR
08:44:24.404 T:4039111424   DEBUG:   Frames        : 2048
08:44:24.404 T:4039111424   DEBUG:   Frame Size    : 8
08:44:24.532 T:4048651008   DEBUG: ActiveAE::SyncStream - average error of 67.116392, start adjusting
08:44:24.532 T:4048651008   DEBUG: ActiveAE::SyncStream - average error 25.116392 below threshold of 30.000000
08:44:24.585 T:4078957136   DEBUG: OnKey: 168 (0xa8, obc87) pressed, action is StepForward
08:44:26.812 T:3560960768   DEBUG: Previous line repeats 51 times.
08:44:26.812 T:3560960768   DEBUG: CPullupCorrection: detected pattern of length 1: 20000.00, frameduration: 20000.000000
08:44:26.819 T:4078957136   DEBUG: OnKey: 168 (0xa8, obc87) pressed, action is StepForward
08:44:32.086 T:4078957136   DEBUG: Previous line repeats 131 times.
08:44:32.086 T:4078957136   DEBUG: CRenderManager::PrepareNextRender m_QueueSkip:0 iter.pts:23.700 front.pts:23.680 renderPts:23.764  latency:0.067
08:44:32.087 T:4078957136   DEBUG: CRenderManager::PrepareNextRender m_QueueSkip:0 iter.pts:23.720 front.pts:23.680 renderPts:23.764  latency:0.067
08:44:32.102 T:4078957136   DEBUG: OnKey: 168 (0xa8, obc87) pressed, action is StepForward
08:44:36.786 T:4078957136   DEBUG: Previous line repeats 116 times.
08:44:36.786 T:4078957136   DEBUG: LIRC: Update - NEW at 85203:6a 0 KEY_RIGHT_UP linux-input-layer (KEY_RIGHT_UP)
08:44:36.802 T:4078957136   DEBUG: LIRC: Update - NEW at 85219:69 0 KEY_LEFT linux-input-layer (KEY_LEFT)
08:44:36.802 T:4078957136   DEBUG: OnKey: 169 (0xa9, obc86) pressed, action is StepBack
08:44:37.119 T:4078957136   DEBUG: CRenderManager::PrepareNextRender m_QueueSkip:2 iter.pts:28.720 front.pts:28.700 renderPts:28.797  latency:0.067
08:44:37.119 T:4078957136   DEBUG: CRenderManager::PrepareNextRender m_QueueSkip:2 iter.pts:28.740 front.pts:28.700 renderPts:28.797  latency:0.067
08:44:37.154 T:4078957136   DEBUG: CRenderManager::PrepareNextRender m_QueueSkip:4 iter.pts:28.800 front.pts:28.780 renderPts:28.832  latency:0.067
08:44:37.569 T:4078953216   DEBUG: CAnnouncementManager - Announcement: OnSeek from xbmc
08:44:37.569 T:4078953216   DEBUG: GOT ANNOUNCEMENT, type: 1, from xbmc, message OnSeek
08:44:37.578 T:3794514688   DEBUG: CVideoPlayer::SetCaching - caching state 1
08:44:37.578 T:3794514688   DEBUG: CDVDClock::SetSpeedAdjust - adjusted:0.000000
08:44:37.578 T:3794514688   DEBUG: demuxer seek to: 183029189.000000
08:44:37.589 T:3534430976   DEBUG: CDVDAudio::Pause - pausing audio stream
08:44:37.615 T:3794514688   DEBUG: Seek - waiting for position 1376720284.
08:44:37.637 T:3836982016   DEBUG: Skin Helper Service --> Kodi_Monitor: sender xbmc - method: Player.OnSeek  - data: {"item":{"id":1493,"type":"episode"},"player":{"playerid":1,"seekoffset":{"hours":50,"milliseconds":0,"minutes":50,"seconds":0},"speed":1,"time":{"hours":50,"milliseconds":179,"minutes":50,"seconds":29}}}
08:44:37.669 T:4078957136   DEBUG: OnKey: 169 (0xa9, obc86) pressed, action is StepBack
08:44:37.679 T:3517653760    INFO: CFileCache::Process - Source read didn't return any data! Hit eof(?)
08:44:37.722 T:3517653760   DEBUG: Thread FileCache 3517653760 terminating
08:44:37.742 T:3794514688   DEBUG: CSMBFile::Close closing fd 10000
08:44:37.749 T:3794514688   DEBUG: SeekTime - seek ended up on time 37920
08:44:37.749 T:3794514688   DEBUG: VideoPlayer: seek failed or hit end of stream
08:44:37.750 T:3794514688   DEBUG: CVideoPlayer::FlushBuffers - flushing buffers
08:44:37.802 T:3534430976   DEBUG: CDVDAudio::Flush - flush audio stream
08:44:37.802 T:3534430976   DEBUG: CDVDAudio::Pause - pausing audio stream
08:44:37.869 T:4078957136   DEBUG: OnKey: 169 (0xa9, obc86) pressed, action is StepBack
08:44:38.135 T:4078957136   DEBUG: Previous line repeats 1 times.
08:44:38.135 T:4078957136   DEBUG: LIRC: Update - NEW at 86552:69 0 KEY_LEFT_UP linux-input-layer (KEY_LEFT_UP)
08:44:38.755 T:3534430976   DEBUG: CDVDMsgGeneralSynchronize - global timeout
08:44:38.755 T:3534430976   DEBUG: CVideoPlayerAudio - CDVDMsg::GENERAL_SYNCHRONIZE
08:44:38.755 T:3794514688   DEBUG: CDVDMsgGeneralSynchronize - global timeout
08:44:38.755 T:3794514688   DEBUG: CVideoPlayer::SetCaching - caching state 2
08:44:38.755 T:3794514688   DEBUG: CDVDClock::SetSpeedAdjust - adjusted:0.000000
08:44:38.755 T:3794514688  NOTICE: CVideoPlayer::OnExit()
08:44:38.756 T:3794514688  NOTICE: VideoPlayer: eof, waiting for queues to empty
08:44:38.756 T:3794514688  NOTICE: Closing stream player 1
08:44:38.756 T:3794514688  NOTICE: Waiting for audio thread to exit
08:44:38.765 T:3534430976  NOTICE: thread end: CVideoPlayerAudio::OnExit()
08:44:38.765 T:3534430976   DEBUG: Thread VideoPlayerAudio 3534430976 terminating
08:44:38.765 T:3794514688  NOTICE: Closing audio device
08:44:38.766 T:3794514688   DEBUG: CDVDAudio::Flush - flush audio stream
08:44:38.766 T:4048651008   DEBUG: CActiveAE::DiscardStream - audio stream deleted
08:44:38.766 T:4048651008   DEBUG: CActiveAE::ClearDiscardedBuffers - buffer pool deleted
08:44:38.767 T:3794514688   DEBUG: Previous line repeats 2 times.
08:44:38.767 T:3794514688  NOTICE: Deleting audio codec
08:44:38.767 T:3794514688  NOTICE: Closing stream player 2
08:44:38.767 T:3794514688  NOTICE: waiting for video thread to exit
08:44:38.769 T:4039111424    INFO: CActiveAESink::OpenSink - initialize sink
08:44:38.769 T:4039111424   DEBUG: CActiveAESink::OpenSink - trying to open device ALSA:default
08:44:38.769 T:4039111424    INFO: CAESinkALSA::Initialize - Requested layout: FL,FR
08:44:38.769 T:4039111424    INFO: CAESinkALSA::Initialize - set digital_codec 0
08:44:38.769 T:4039111424   DEBUG: CAESinkALSA::Initialize -- unmuting HDMI
08:44:38.769 T:4039111424    INFO: CAESinkALSA::Initialize - Attempting to open device "default"
                                             with
08:44:38.770 T:4078957136   DEBUG: ------ Window Init (Custom_Cache_Progress.xml) ------
08:44:38.771 T:4078957136   DEBUG: started alarm with name: iscachingtimer
08:44:38.777 T:3560960768  NOTICE: thread end: video_thread
08:44:38.778 T:3560960768   DEBUG: Thread VideoPlayerVideo 3560960768 terminating
08:44:38.778 T:3794514688  NOTICE: deleting video codec
08:44:38.778 T:3794514688   DEBUG: CAMLCodec::CloseDecoder
08:44:38.789 T:4039111424    INFO: CAESinkALSA::Initialize - Opened device "default"
08:44:38.793 T:4039111424    INFO: CAESinkALSA::InitializeHW - Your hardware does not support AE_FMT_FLOAT, trying other formats
08:44:38.793 T:4039111424    INFO: CAESinkALSA::InitializeHW - Using data format AE_FMT_S32NE
08:44:38.793 T:4039111424   DEBUG: CAESinkALSA::InitializeHW - Request: periodSize 2048, bufferSize 8192
08:44:38.795 T:4039111424   DEBUG: CAESinkALSA::InitializeHW - Got: periodSize 2048, bufferSize 8192
08:44:38.796 T:4039111424   DEBUG: CAESinkALSA::InitializeHW - Setting timeout to 186 ms
08:44:38.796 T:4039111424    INFO: CAESinkALSA::Initialize - setting default aud_ch to 0
08:44:38.796 T:4039111424   DEBUG: CAESinkALSA::GetChannelLayout - Input Channel Count: 2 Output Channel Count: 2
08:44:38.797 T:4039111424   DEBUG: CAESinkALSA::GetChannelLayout - Requested Layout: FL,FR
08:44:38.797 T:4039111424   DEBUG: CAESinkALSA::GetChannelLayout - Got Layout: FL,FR (ALSA: none) (CEA: 0)
08:44:38.797 T:4039111424   DEBUG: CActiveAESink::OpenSink - ALSA Initialized:
08:44:38.797 T:4039111424   DEBUG:   Output Device : Default (AML-M8AUDIO Analog)
08:44:38.797 T:4039111424   DEBUG:   Sample Rate   : 44100
08:44:38.797 T:4039111424   DEBUG:   Sample Format : AE_FMT_S32NE
08:44:38.797 T:4039111424   DEBUG:   Channel Count : 2
08:44:38.797 T:4039111424   DEBUG:   Channel Layout: FL,FR
08:44:38.797 T:4039111424   DEBUG:   Frames        : 2048
08:44:38.797 T:4039111424   DEBUG:   Frame Size    : 8
08:44:38.800 T:4048651008   DEBUG: CActiveAE::ClearDiscardedBuffers - buffer pool deleted
08:44:38.823 T:3794514688   DEBUG: Previous line repeats 1 times.
08:44:38.823 T:3794514688   DEBUG: OnPlayBackEnded: play state was 2, starting 0
08:44:38.824 T:3794514688   DEBUG: Thread VideoPlayer 3794514688 terminating
08:44:38.824 T:4078953216   DEBUG: CAnnouncementManager - Announcement: OnStop from xbmc
08:44:38.824 T:4078953216   DEBUG: GOT ANNOUNCEMENT, type: 1, from xbmc, message OnStop
08:44:38.825 T:4078957136   DEBUG: CGUIWindowManager::PreviousWindow: Deactivate
08:44:38.825 T:4078957136   DEBUG: ------ Window Deinit (VideoFullScreen.xml) ------
08:44:38.836 T:4078957136   DEBUG: CGUIWindowManager::PreviousWindow: Activate new
08:44:38.841 T:3836982016   DEBUG: Skin Helper Service --> Kodi_Monitor: sender xbmc - method: Player.OnStop  - data: {"end":true,"item":{"id":1493,"type":"episode"}}
08:44:38.843 T:4078957136   DEBUG: ------ Window Init (MyVideoNav.xml) ------

#7

Problem still existing. Which info can I additionally deliver?


#8

We need full logs


#9

I hope this time it’s correct:
https://paste.osmc.tv/caweziriko
Problem this time occurred while navigating to a movie. I hardly couldn’t, because OSMC repeated my keypress so often.


#10

Are the logs full? What does “Previous line repeats n times” mean, and how can I avoid it?


#11

Also, by the way, the “Official Kodi Remote” iphone app can’t establish a connection to my device any more. It just came to my mind so that I at least could try whether the behaviour is different between Harmony Elite and Kodi Remote, or watch videos, but it does not connect any more. I remember it worked before the October update because I use Kodi Remote to enter text.


#12

Please submit all logs and reboot before reproducing the issue. You can learn more about how to submit a useful support request here.

Depending on the used skin you have to set the settings-level to standard or higher, in summary:

  • enable debug logging at settings->system->logging

  • reboot the OSMC device

  • reproduce the issue

  • upload the log set either using the Log Uploader method within the My OSMC menu in the GUI or the ssh method invoking command grab-logs -A

  • publish the provided URL from the log set upload, here

Thanks for your understanding. We hope that we can help you get up and running again shortly.

OSMC skin screenshot:


#13

Hi grahamh,
https://paste.osmc.tv/caweziriko, as written above.


#14

Well, I assume the “Official Kodi Remote” by joethefox uses the same access method like the Kore app on Android, means http access to port 8080.

Could you try to login from a browser at http://<your Vero IP>:8080 with the related credentials you set? (I see in the logs you’ve set a very short username and password with a special character).
Is that working?


#15

I had just ended answering you as the Kodi Remote was able to connect, and so were the browsers. So, after several minutes the connection was successful. Using any of those is next to impossible, because any keypress on Kodi Remote takes seconds to be performed on OSMC, and listing TVShows on the browser takes ages to load a crippled UI with broken fanart/posters.


#16

Could you just for tests connect your Vero with a LAN cable to the router? Your log shows you are using WLAN.
For that in MyOSMC->Network disable Wireless and enable Wired. A reboot will not hurt.

I would like to see, if a browser on a PC/Mac also connected via cable shows the same latency issues accessing the Vero’s web server or not. This will prove your wifi to be (part of) the problem or not.
I assume you’re not doing any activities on the OSMC device exhausting the available network bandwidth like torrent, resilio sync, syncthing, etc.


#17

Meanwhile, Kodi Remote and remotes in browsers work again, wired and wirelessly. I can’t reproduce the lagging problem.

The main problem, repeating key presses, still exists, however only with the hardware remote, not with Kodi Remote app.


#18

So, what device you’ve chosen from the Logitech db to simulate the original OSMC RF remote control?
I think, if you take the original OSMC RF Remote Control instead the Logitech device you don’t have the problem of repeated key pressing?

The good question is: Is there a OSMC RF (radio frequency) Remote Control at all on the Logitech db or is there only the OSMC IR (Infra Red) Remote Control from the Vero 1?

In the past I’ve had issues with my Harmony 650 (only IR capable) and the OSMC Vero-entry in the Logitech db which simulates the infrared Remtoe Controle of the Vero 1 … and that not even in a good way. With my Harmony 650 I switched to an XBOX360 simulation which works quite good … but your advanced Harmony should also be able to send the RF commands, right?